Time,TemperatureF,DewpointF,PressureIn,WindDirection,WindDirectionDegrees,WindSpeedMPH,WindSpeedGustMPH,Humidity,HourlyPrecipIn,Conditions,Clouds,dailyrainin,SoftwareType,DateUTC
2013-01-29 00:00:00,30.8,29.8,29.99,SE,143,2.0,3.0,96,0.00,,,0.00,Wunderground v.1.15,2013-01-29 05:00:00,
2013-01-29 00:01:00,30.8,29.5,30.00,SE,143,1.0,2.0,95,0.00,,,0.00,Wunderground v.1.15,2013-01-29 05:01:00,
2013-01-29 00:03:00,30.8,29.5,30.00,SE,143,2.0,2.0,95,0.00,,,0.00,Wunderground v.1.15,2013-01-29 05:03:00,
2013-01-29 00:06:00,30.9,29.9,30.00,SE,143,2.0,2.0,96,0.00,,,0.00,Wunderground v.1.15,2013-01-29 05:06:00,
2013-01-29 00:15:00,30.9,29.9,29.99,SE,143,1.0,1.0,96,0.00,,,0.00,Wunderground v.1.15,2013-01-29 05:15:00,
2013-01-29 00:20:00,30.8,29.8,29.98,SE,143,0.0,1.0,96,0.00,,,0.00,Wunderground v.1.15,2013-01-29 05:20:00,
2013-01-29 00:25:00,30.9,29.9,29.98,SE,143,0.0,0.0,96,0.00,,,0.00,Wunderground v.1.15,2013-01-29 05:25:00,
2013-01-29 00:30:00,30.9,29.9,29.98,SE,143,0.0,1.0,96,0.00,,,0.00,Wunderground v.1.15,2013-01-29 05:30:00,
2013-01-29 00:35:00,30.8,29.8,29.98,SE,143,1.0,1.0,96,0.00,,,0.00,Wunderground v.1.15,2013-01-29 05:35:00,
2013-01-29 00:41:00,30.8,29.8,29.98,SE,143,1.0,2.0,96,0.00,,,0.00,Wunderground v.1.15,2013-01-29 05:41:00,
2013-01-29 00:46:00,30.8,29.8,29.99,SE,143,2.0,2.0,96,0.00,,,0.00,Wunderground v.1.15,2013-01-29 05:46:00,
2013-01-29 00:51:00,30.8,29.8,29.98,SE,143,1.0,2.0,96,0.00,,,0.00,Wunderground v.1.15,2013-01-29 05:51:00,
2013-01-29 00:56:00,30.8,29.8,29.99,SE,143,2.0,2.0,96,0.00,,,0.00,Wunderground v.1.15,2013-01-29 05:56:00,
2013-01-29 01:01:00,30.7,29.7,29.99,SE,143,2.0,2.0,96,0.00,,,0.00,Wunderground v.1.15,2013-01-29 06:01:00,
2013-01-29 01:06:00,30.8,29.8,29.99,SE,143,1.0,3.0,96,0.00,,,0.00,Wunderground v.1.15,2013-01-29 06:06:00,
2013-01-29 01:11:00,30.8,29.8,30.00,SE,143,3.0,3.0,96,0.00,,,0.00,Wunderground v.1.15,2013-01-29 06:11:00,
2013-01-29 01:17:00,30.7,29.7,29.99,SE,143,3.0,3.0,96,0.00,,,0.00,Wunderground v.1.15,2013-01-29 06:17:00,
2013-01-29 01:23:00,30.6,29.6,30.00,SE,143,3.0,4.0,96,0.00,,,0.00,Wunderground v.1.15,2013-01-29 06:23:00,
2013-01-29 01:29:00,30.6,29.6,30.00,NW,323,3.0,5.0,96,0.00,,,0.00,Wunderground v.1.15,2013-01-29 06:29:00,
2013-01-29 01:34:00,30.6,29.6,30.01,NW,323,3.0,4.0,96,0.00,,,0.00,Wunderground v.1.15,2013-01-29 06:34:00,
2013-01-29 01:40:00,30.5,29.5,30.00,NW,323,3.0,3.0,96,0.00,,,0.00,Wunderground v.1.15,2013-01-29 06:40:00,
2013-01-29 01:45:00,30.5,29.5,30.01,NW,323,2.0,3.0,96,0.00,,,0.00,Wunderground v.1.15,2013-01-29 06:45:00,
2013-01-29 01:51:00,30.4,29.4,30.01,NW,323,2.0,2.0,96,0.00,,,0.00,Wunderground v.1.15,2013-01-29 06:51:00,
2013-01-29 01:56:00,30.4,29.4,30.01,NW,323,1.0,2.0,96,0.00,,,0.00,Wunderground v.1.15,2013-01-29 06:56:00,
2013-01-29 02:01:00,30.4,29.4,30.01,NW,323,2.0,2.0,96,0.00,,,0.00,Wunderground v.1.15,2013-01-29 07:01:00,
2013-01-29 02:06:00,30.4,29.4,30.01,NW,323,3.0,3.0,96,0.00,,,0.00,Wunderground v.1.15,2013-01-29 07:06:00,
2013-01-29 02:11:00,30.3,29.3,30.01,NW,323,1.0,3.0,96,0.00,,,0.00,Wunderground v.1.15,2013-01-29 07:11:00,
2013-01-29 02:16:00,30.3,29.3,30.02,NW,323,3.0,4.0,96,0.00,,,0.00,Wunderground v.1.15,2013-01-29 07:16:00,
2013-01-29 02:21:00,30.3,29.3,30.02,NW,323,2.0,4.0,96,0.00,,,0.00,Wunderground v.1.15,2013-01-29 07:21:00,
2013-01-29 02:26:00,30.3,29.3,30.01,NW,323,4.0,4.0,96,0.00,,,0.00,Wunderground v.1.15,2013-01-29 07:26:00,
2013-01-29 02:31:00,30.3,29.3,30.01,NW,323,2.0,4.0,96,0.00,,,0.00,Wunderground v.1.15,2013-01-29 07:31:00,
2013-01-29 02:36:00,30.2,29.2,30.01,NW,323,2.0,4.0,96,0.00,,,0.00,Wunderground v.1.15,2013-01-29 07:36:00,
2013-01-29 02:41:00,30.2,29.2,30.01,NW,319,4.0,4.0,96,0.00,,,0.00,Wunderground v.1.15,2013-01-29 07:41:00,
2013-01-29 02:46:00,30.2,29.2,30.01,NW,319,4.0,4.0,96,0.00,,,0.00,Wunderground v.1.15,2013-01-29 07:46:00,
2013-01-29 02:52:00,30.2,29.2,30.01,NW,319,1.0,4.0,96,0.00,,,0.00,Wunderground v.1.15,2013-01-29 07:52:00,
2013-01-29 02:57:00,30.2,29.2,30.01,NW,319,4.0,4.0,96,0.00,,,0.00,Wunderground v.1.15,2013-01-29 07:57:00,
2013-01-29 03:02:00,30.2,29.2,30.01,NW,321,3.0,4.0,96,0.00,,,0.00,Wunderground v.1.15,2013-01-29 08:02:00,
2013-01-29 03:07:00,30.2,29.2,30.01,NW,316,4.0,4.0,96,0.00,,,0.00,Wunderground v.1.15,2013-01-29 08:07:00,
2013-01-29 03:12:00,30.2,29.2,30.02,NW,316,2.0,3.0,96,0.00,,,0.00,Wunderground v.1.15,2013-01-29 08:12:00,
2013-01-29 03:17:00,30.2,29.2,30.02,NW,320,1.0,4.0,96,0.00,,,0.00,Wunderground v.1.15,2013-01-29 08:17:00,
2013-01-29 03:22:00,30.2,29.2,30.02,NW,318,3.0,4.0,96,0.00,,,0.00,Wunderground v.1.15,2013-01-29 08:22:00,
2013-01-29 03:27:00,30.2,29.2,30.01,NW,318,3.0,4.0,96,0.00,,,0.00,Wunderground v.1.15,2013-01-29 08:27:00,
2013-01-29 03:32:00,30.2,29.2,30.01,NW,321,1.0,4.0,96,0.00,,,0.00,Wunderground v.1.15,2013-01-29 08:32:00,
2013-01-29 03:37:00,30.1,29.1,30.02,NW,317,2.0,4.0,96,0.00,,,0.00,Wunderground v.1.15,2013-01-29 08:37:00,
2013-01-29 03:42:00,30.1,29.1,30.02,NW,315,3.0,3.0,96,0.00,,,0.00,Wunderground v.1.15,2013-01-29 08:42:00,
2013-01-29 03:47:00,30.1,29.1,30.02,NW,322,5.0,5.0,96,0.00,,,0.00,Wunderground v.1.15,2013-01-29 08:47:00,
2013-01-29 03:52:00,30.1,29.1,30.02,NW,314,4.0,5.0,96,0.00,,,0.00,Wunderground v.1.15,2013-01-29 08:52:00,
2013-01-29 03:57:00,30.1,29.1,30.02,NW,322,3.0,5.0,96,0.00,,,0.00,Wunderground v.1.15,2013-01-29 08:57:00,
2013-01-29 04:02:00,30.1,29.1,30.02,NW,323,4.0,5.0,96,0.00,,,0.00,Wunderground v.1.15,2013-01-29 09:02:00,
2013-01-29 04:07:00,30.1,29.1,30.02,NNW,334,3.0,6.0,96,0.00,,,0.00,Wunderground v.1.15,2013-01-29 09:07:00,
2013-01-29 04:12:00,30.1,29.1,30.02,NW,322,4.0,5.0,96,0.00,,,0.00,Wunderground v.1.15,2013-01-29 09:12:00,
2013-01-29 04:17:00,30.1,29.1,30.03,NNW,334,4.0,6.0,96,0.00,,,0.00,Wunderground v.1.15,2013-01-29 09:17:00,
2013-01-29 04:22:00,30.1,29.1,30.03,NNW,330,4.0,4.0,96,0.00,,,0.00,Wunderground v.1.15,2013-01-29 09:22:00,
2013-01-29 04:27:00,30.1,29.1,30.03,NW,325,3.0,4.0,96,0.00,,,0.00,Wunderground v.1.15,2013-01-29 09:27:00,
2013-01-29 04:32:00,30.1,29.1,30.03,NW,325,4.0,4.0,96,0.00,,,0.00,Wunderground v.1.15,2013-01-29 09:32:00,
2013-01-29 04:37:00,30.1,29.1,30.03,NNW,327,4.0,4.0,96,0.00,,,0.00,Wunderground v.1.15,2013-01-29 09:37:00,
2013-01-29 04:42:00,30.1,29.1,30.03,NW,326,3.0,4.0,96,0.00,,,0.00,Wunderground v.1.15,2013-01-29 09:42:00,
2013-01-29 04:48:00,30.1,29.1,30.03,NNW,334,4.0,5.0,96,0.00,,,0.00,Wunderground v.1.15,2013-01-29 09:48:00,
2013-01-29 04:53:00,30.1,29.1,30.03,NNW,337,4.0,4.0,96,0.00,,,0.00,Wunderground v.1.15,2013-01-29 09:53:00,
2013-01-29 04:58:00,30.1,29.1,30.04,NNW,345,5.0,5.0,96,0.00,,,0.00,Wunderground v.1.15,2013-01-29 09:58:00,
2013-01-29 05:03:00,30.1,29.1,30.04,NNW,344,4.0,6.0,96,0.00,,,0.00,Wunderground v.1.15,2013-01-29 10:03:00,
2013-01-29 05:08:00,30.1,29.1,30.05,NNW,347,6.0,6.0,96,0.00,,,0.00,Wunderground v.1.15,2013-01-29 10:08:00,
2013-01-29 05:13:00,30.2,29.2,30.05,NNW,342,6.0,6.0,96,0.00,,,0.00,Wunderground v.1.15,2013-01-29 10:13:00,
2013-01-29 05:18:00,30.1,29.1,30.05,NNW,338,5.0,6.0,96,0.00,,,0.00,Wunderground v.1.15,2013-01-29 10:18:00,
2013-01-29 05:23:00,30.1,29.1,30.05,NNW,343,5.0,6.0,96,0.00,,,0.00,Wunderground v.1.15,2013-01-29 10:23:00,
2013-01-29 05:28:00,30.2,29.2,30.05,NNW,329,3.0,6.0,96,0.00,,,0.00,Wunderground v.1.15,2013-01-29 10:28:00,
2013-01-29 05:33:00,30.1,29.1,30.05,NW,325,4.0,4.0,96,0.00,,,0.00,Wunderground v.1.15,2013-01-29 10:33:00,
2013-01-29 05:38:00,30.2,29.2,30.06,NW,326,3.0,5.0,96,0.00,,,0.00,Wunderground v.1.15,2013-01-29 10:38:00,
2013-01-29 05:43:00,30.2,29.2,30.06,NNW,327,3.0,5.0,96,0.00,,,0.00,Wunderground v.1.15,2013-01-29 10:43:00,
2013-01-29 05:48:00,30.2,29.2,30.06,NW,324,2.0,5.0,96,0.00,,,0.00,Wunderground v.1.15,2013-01-29 10:48:00,
2013-01-29 05:53:00,30.1,29.1,30.06,NW,315,2.0,4.0,96,0.00,,,0.00,Wunderground v.1.15,2013-01-29 10:53:00,
2013-01-29 05:58:00,30.1,29.1,30.06,NW,315,2.0,4.0,96,0.00,,,0.00,Wunderground v.1.15,2013-01-29 10:58:00,
2013-01-29 06:03:00,30.1,29.1,30.07,NW,325,4.0,5.0,96,0.00,,,0.00,Wunderground v.1.15,2013-01-29 11:03:00,
2013-01-29 06:08:00,30.1,29.1,30.07,NNW,334,4.0,6.0,96,0.00,,,0.00,Wunderground v.1.15,2013-01-29 11:08:00,
2013-01-29 06:13:00,29.9,28.9,30.06,NW,325,4.0,5.0,96,0.00,,,0.00,Wunderground v.1.15,2013-01-29 11:13:00,
2013-01-29 06:18:00,29.9,28.9,30.06,North,355,5.0,6.0,96,0.00,,,0.00,Wunderground v.1.15,2013-01-29 11:18:00,
2013-01-29 06:23:00,29.8,28.8,30.07,NNW,340,4.0,5.0,96,0.00,,,0.00,Wunderground v.1.15,2013-01-29 11:23:00,
2013-01-29 06:28:00,29.8,28.8,30.07,NNW,340,4.0,6.0,96,0.00,,,0.00,Wunderground v.1.15,2013-01-29 11:28:00,
2013-01-29 06:33:00,29.8,28.8,30.07,NNW,336,4.0,6.0,96,0.00,,,0.00,Wunderground v.1.15,2013-01-29 11:33:00,
2013-01-29 06:38:00,29.7,28.7,30.07,NNW,333,3.0,6.0,96,0.00,,,0.00,Wunderground v.1.15,2013-01-29 11:38:00,
2013-01-29 06:43:00,29.7,28.7,30.07,NNW,333,2.0,4.0,96,0.00,,,0.00,Wunderground v.1.15,2013-01-29 11:43:00,
2013-01-29 06:48:00,29.7,28.7,30.08,NNW,331,5.0,5.0,96,0.00,,,0.00,Wunderground v.1.15,2013-01-29 11:48:00,
2013-01-29 06:53:00,29.7,28.7,30.08,NW,325,5.0,6.0,96,0.00,,,0.00,Wunderground v.1.15,2013-01-29 11:53:00,
2013-01-29 06:58:00,29.7,28.7,30.09,NW,321,3.0,6.0,96,0.00,,,0.00,Wunderground v.1.15,2013-01-29 11:58:00,
2013-01-29 07:03:00,29.6,28.3,30.09,NW,323,4.0,5.0,95,0.00,,,0.00,Wunderground v.1.15,2013-01-29 12:03:00,
2013-01-29 07:08:00,29.5,28.2,30.09,NNW,332,4.0,7.0,95,0.00,,,0.00,Wunderground v.1.15,2013-01-29 12:08:00,
2013-01-29 07:13:00,29.5,28.2,30.09,NNW,340,6.0,7.0,95,0.00,,,0.00,Wunderground v.1.15,2013-01-29 12:13:00,
2013-01-29 07:18:00,29.5,28.2,30.10,NW,325,3.0,7.0,95,0.00,,,0.00,Wunderground v.1.15,2013-01-29 12:18:00,
2013-01-29 07:23:00,29.5,28.2,30.10,NNW,327,4.0,6.0,95,0.00,,,0.00,Wunderground v.1.15,2013-01-29 12:23:00,
2013-01-29 07:28:00,29.4,28.1,30.10,NNW,333,5.0,7.0,95,0.00,,,0.00,Wunderground v.1.15,2013-01-29 12:28:00,
2013-01-29 07:33:00,29.4,28.1,30.11,NNW,335,6.0,7.0,95,0.00,,,0.00,Wunderground v.1.15,2013-01-29 12:33:00,
2013-01-29 07:38:00,29.3,28.0,30.11,North,350,7.0,7.0,95,0.00,,,0.00,Wunderground v.1.15,2013-01-29 12:38:00,
2013-01-29 07:43:00,29.3,28.0,30.12,NNW,338,6.0,7.0,95,0.00,,,0.00,Wunderground v.1.15,2013-01-29 12:43:00,
2013-01-29 07:48:00,29.2,27.9,30.12,NNW,344,7.0,7.0,95,0.00,,,0.00,Wunderground v.1.15,2013-01-29 12:48:00,
2013-01-29 07:54:00,29.2,27.9,30.12,NNW,334,4.0,7.0,95,0.00,,,0.00,Wunderground v.1.15,2013-01-29 12:54:00,
2013-01-29 07:59:00,29.2,27.9,30.13,NNW,346,5.0,7.0,95,0.00,,,0.00,Wunderground v.1.15,2013-01-29 12:59:00,
2013-01-29 08:04:00,29.2,27.9,30.13,North,355,5.0,9.0,95,0.00,,,0.00,Wunderground v.1.15,2013-01-29 13:04:00,
2013-01-29 08:09:00,29.2,27.9,30.13,NNW,340,4.0,9.0,95,0.00,,,0.00,Wunderground v.1.15,2013-01-29 13:09:00,
2013-01-29 08:14:00,29.1,27.8,30.13,NNW,342,6.0,8.0,95,0.00,,,0.00,Wunderground v.1.15,2013-01-29 13:14:00,
2013-01-29 08:19:00,29.1,27.8,30.12,NNW,333,3.0,8.0,95,0.00,,,0.00,Wunderground v.1.15,2013-01-29 13:19:00,
2013-01-29 08:24:00,29.1,27.8,30.12,NNW,333,4.0,5.0,95,0.00,,,0.00,Wunderground v.1.15,2013-01-29 13:24:00,
2013-01-29 08:29:00,29.2,27.9,30.13,NNW,333,3.0,5.0,95,0.00,,,0.00,Wunderground v.1.15,2013-01-29 13:29:00,
2013-01-29 08:34:00,29.2,27.9,30.13,NNW,333,3.0,4.0,95,0.00,,,0.00,Wunderground v.1.15,2013-01-29 13:34:00,
2013-01-29 08:39:00,29.3,28.0,30.14,NNW,333,3.0,4.0,95,0.00,,,0.00,Wunderground v.1.15,2013-01-29 13:39:00,
2013-01-29 08:44:00,29.4,28.1,30.14,NNW,333,4.0,4.0,95,0.00,,,0.00,Wunderground v.1.15,2013-01-29 13:44:00,
2013-01-29 08:49:00,29.5,28.2,30.14,NNW,333,2.0,4.0,95,0.00,,,0.00,Wunderground v.1.15,2013-01-29 13:49:00,
2013-01-29 08:54:00,29.6,28.1,30.14,NNW,333,2.0,3.0,94,0.00,,,0.00,Wunderground v.1.15,2013-01-29 13:54:00,
2013-01-29 08:59:00,29.7,28.4,30.15,NNW,333,3.0,3.0,95,0.00,,,0.00,Wunderground v.1.15,2013-01-29 13:59:00,
2013-01-29 09:04:00,29.7,28.4,30.15,NNW,333,1.0,3.0,95,0.00,,,0.00,Wunderground v.1.15,2013-01-29 14:04:00,
2013-01-29 09:09:00,29.8,28.3,30.14,NNW,333,1.0,3.0,94,0.00,,,0.00,Wunderground v.1.15,2013-01-29 14:09:00,
2013-01-29 09:14:00,29.9,28.4,30.15,NNW,333,2.0,3.0,94,0.00,,,0.00,Wunderground v.1.15,2013-01-29 14:14:00,
2013-01-29 09:19:00,30.1,28.6,30.15,NNW,333,2.0,4.0,94,0.00,,,0.00,Wunderground v.1.15,2013-01-29 14:19:00,
2013-01-29 09:24:00,30.2,28.9,30.15,NNW,333,3.0,4.0,95,0.00,,,0.00,Wunderground v.1.15,2013-01-29 14:24:00,
2013-01-29 09:29:00,30.3,28.8,30.14,NNW,333,3.0,4.0,94,0.00,,,0.00,Wunderground v.1.15,2013-01-29 14:29:00,
2013-01-29 09:34:00,30.3,28.8,30.14,NNW,333,3.0,4.0,94,0.00,,,0.00,Wunderground v.1.15,2013-01-29 14:34:00,
2013-01-29 09:39:00,30.3,28.8,30.13,North,355,4.0,4.0,94,0.00,,,0.00,Wunderground v.1.15,2013-01-29 14:39:00,
2013-01-29 09:44:00,30.3,28.8,30.13,North,355,4.0,4.0,94,0.00,,,0.00,Wunderground v.1.15,2013-01-29 14:44:00,
2013-01-29 09:49:00,30.3,28.8,30.13,North,355,3.0,5.0,94,0.00,,,0.00,Wunderground v.1.15,2013-01-29 14:49:00,
2013-01-29 09:54:00,30.4,28.9,30.14,North,355,3.0,5.0,94,0.00,,,0.00,Wunderground v.1.15,2013-01-29 14:54:00,
2013-01-29 09:59:00,30.4,28.9,30.14,North,355,2.0,5.0,94,0.00,,,0.00,Wunderground v.1.15,2013-01-29 14:59:00,
2013-01-29 10:04:00,30.5,29.0,30.14,NNW,348,2.0,4.0,94,0.00,,,0.00,Wunderground v.1.15,2013-01-29 15:04:00,
2013-01-29 10:09:00,30.7,29.2,30.15,NNW,333,3.0,4.0,94,0.00,,,0.00,Wunderground v.1.15,2013-01-29 15:09:00,
2013-01-29 10:14:00,30.8,29.5,30.15,NW,325,3.0,4.0,95,0.00,,,0.01,Wunderground v.1.15,2013-01-29 15:14:00,
2013-01-29 10:19:00,30.9,29.4,30.14,NW,325,3.0,4.0,94,0.00,,,0.01,Wunderground v.1.15,2013-01-29 15:19:00,
2013-01-29 10:24:00,30.9,29.4,30.15,NNW,332,3.0,4.0,94,0.00,,,0.01,Wunderground v.1.15,2013-01-29 15:24:00,
2013-01-29 10:29:00,31.0,29.5,30.15,NNW,332,3.0,4.0,94,0.00,,,0.01,Wunderground v.1.15,2013-01-29 15:29:00,
2013-01-29 10:34:00,31.1,29.6,30.16,NNW,332,4.0,4.0,94,0.04,,,0.02,Wunderground v.1.15,2013-01-29 15:34:00,
2013-01-29 10:39:00,31.2,29.7,30.16,NNW,332,2.0,4.0,94,0.10,,,0.03,Wunderground v.1.15,2013-01-29 15:39:00,
2013-01-29 10:44:00,31.5,30.2,30.17,NNW,332,3.0,4.0,95,0.07,,,0.03,Wunderground v.1.15,2013-01-29 15:44:00,
2013-01-29 10:49:00,31.7,30.2,30.16,NNW,332,3.0,4.0,94,0.05,,,0.03,Wunderground v.1.15,2013-01-29 15:49:00,
2013-01-29 10:54:00,31.7,30.2,30.15,NNW,332,3.0,4.0,94,0.04,,,0.04,Wunderground v.1.15,2013-01-29 15:54:00,
2013-01-29 10:59:00,31.7,30.2,30.16,NNW,337,3.0,4.0,94,0.13,,,0.05,Wunderground v.1.15,2013-01-29 15:59:00,
2013-01-29 11:04:00,31.7,30.2,30.16,NNW,337,3.0,4.0,94,0.06,,,0.05,Wunderground v.1.15,2013-01-29 16:04:00,
2013-01-29 11:09:00,31.9,30.4,30.16,NNW,337,4.0,4.0,94,0.04,,,0.05,Wunderground v.1.15,2013-01-29 16:09:00,
2013-01-29 11:14:00,32.0,30.5,30.15,NNW,337,3.0,4.0,94,0.04,,,0.06,Wunderground v.1.15,2013-01-29 16:14:00,
2013-01-29 11:19:00,32.1,30.6,30.15,NNW,337,3.0,4.0,94,0.09,,,0.07,Wunderground v.1.15,2013-01-29 16:19:00,
2013-01-29 11:24:00,32.0,30.5,30.15,NNW,337,3.0,4.0,94,0.07,,,0.07,Wunderground v.1.15,2013-01-29 16:24:00,
2013-01-29 11:29:00,32.0,30.5,30.16,NNW,337,3.0,4.0,94,0.04,,,0.07,Wunderground v.1.15,2013-01-29 16:29:00,
2013-01-29 11:34:00,32.0,30.5,30.16,NNW,337,3.0,4.0,94,0.04,,,0.08,Wunderground v.1.15,2013-01-29 16:34:00,
2013-01-29 11:40:00,32.1,30.6,30.16,NNW,337,3.0,4.0,94,0.04,,,0.08,Wunderground v.1.15,2013-01-29 16:40:00,
2013-01-29 11:45:00,32.0,30.5,30.16,NNW,337,3.0,4.0,94,0.04,,,0.08,Wunderground v.1.15,2013-01-29 16:45:00,
2013-01-29 11:50:00,32.0,30.5,30.16,NNW,337,3.0,4.0,94,0.04,,,0.09,Wunderground v.1.15,2013-01-29 16:50:00,
2013-01-29 11:55:00,32.0,30.7,30.16,NNW,337,3.0,4.0,95,0.04,,,0.09,Wunderground v.1.15,2013-01-29 16:55:00,
2013-01-29 12:00:00,31.9,30.6,30.15,NNW,337,3.0,5.0,95,0.04,,,0.09,Wunderground v.1.15,2013-01-29 17:00:00,
2013-01-29 12:05:00,31.9,30.6,30.15,NNW,337,3.0,5.0,95,0.00,,,0.09,Wunderground v.1.15,2013-01-29 17:05:00,
2013-01-29 12:10:00,31.9,30.6,30.15,NNW,345,5.0,6.0,95,0.00,,,0.09,Wunderground v.1.15,2013-01-29 17:10:00,
2013-01-29 12:15:00,31.8,30.5,30.15,North,355,3.0,5.0,95,0.00,,,0.09,Wunderground v.1.15,2013-01-29 17:15:00,
2013-01-29 12:20:00,31.9,30.6,30.14,North,355,3.0,5.0,95,0.00,,,0.09,Wunderground v.1.15,2013-01-29 17:20:00,
2013-01-29 12:25:00,32.0,30.7,30.15,North,355,3.0,4.0,95,0.00,,,0.10,Wunderground v.1.15,2013-01-29 17:25:00,
2013-01-29 12:30:00,32.1,30.8,30.14,North,355,3.0,3.0,95,0.00,,,0.10,Wunderground v.1.15,2013-01-29 17:30:00,
2013-01-29 12:35:00,32.2,30.9,30.15,North,355,3.0,3.0,95,0.00,,,0.10,Wunderground v.1.15,2013-01-29 17:35:00,
2013-01-29 12:40:00,32.3,31.0,30.15,North,355,3.0,3.0,95,0.00,,,0.10,Wunderground v.1.15,2013-01-29 17:40:00,
2013-01-29 12:45:00,32.4,31.1,30.15,North,355,3.0,4.0,95,0.00,,,0.11,Wunderground v.1.15,2013-01-29 17:45:00,
2013-01-29 12:50:00,32.5,31.2,30.15,North,355,3.0,3.0,95,0.00,,,0.11,Wunderground v.1.15,2013-01-29 17:50:00,
2013-01-29 12:55:00,32.5,31.2,30.15,North,355,2.0,4.0,95,0.00,,,0.11,Wunderground v.1.15,2013-01-29 17:55:00,
2013-01-29 13:00:00,32.6,31.3,30.15,North,355,2.0,3.0,95,0.00,,,0.11,Wunderground v.1.15,2013-01-29 18:00:00,
2013-01-29 13:05:00,32.6,31.1,30.15,North,355,1.0,3.0,94,0.00,,,0.11,Wunderground v.1.15,2013-01-29 18:05:00,
2013-01-29 13:10:00,32.6,31.1,30.15,North,355,1.0,2.0,94,0.00,,,0.11,Wunderground v.1.15,2013-01-29 18:10:00,
2013-01-29 13:15:00,32.6,31.1,30.15,North,355,1.0,2.0,94,0.00,,,0.12,Wunderground v.1.15,2013-01-29 18:15:00,
2013-01-29 13:20:00,32.9,31.6,30.15,North,355,1.0,1.0,95,0.00,,,0.12,Wunderground v.1.15,2013-01-29 18:20:00,
2013-01-29 13:25:00,33.0,31.7,30.15,North,355,0.0,1.0,95,0.00,,,0.12,Wunderground v.1.15,2013-01-29 18:25:00,
2013-01-29 13:30:00,33.0,31.5,30.15,North,355,0.0,1.0,94,0.00,,,0.12,Wunderground v.1.15,2013-01-29 18:30:00,
2013-01-29 13:35:00,33.0,31.5,30.15,North,355,1.0,2.0,94,0.00,,,0.12,Wunderground v.1.15,2013-01-29 18:35:00,
2013-01-29 13:40:00,33.1,31.6,30.14,North,355,0.0,1.0,94,0.00,,,0.13,Wunderground v.1.15,2013-01-29 18:40:00,
2013-01-29 13:45:00,33.3,31.8,30.14,North,355,0.0,1.0,94,0.00,,,0.13,Wunderground v.1.15,2013-01-29 18:45:00,
2013-01-29 13:50:00,33.4,31.9,30.14,North,355,0.0,0.0,94,0.00,,,0.13,Wunderground v.1.15,2013-01-29 18:50:00,
2013-01-29 13:55:00,33.5,32.0,30.15,North,355,0.0,0.0,94,0.00,,,0.13,Wunderground v.1.15,2013-01-29 18:55:00,
2013-01-29 14:01:00,33.5,32.0,30.15,North,355,0.0,1.0,94,0.00,,,0.13,Wunderground v.1.15,2013-01-29 19:01:00,
2013-01-29 14:06:00,33.5,32.0,30.15,North,355,3.0,3.0,94,0.00,,,0.13,Wunderground v.1.15,2013-01-29 19:06:00,
2013-01-29 14:11:00,33.3,31.5,30.15,North,355,3.0,4.0,93,0.00,,,0.13,Wunderground v.1.15,2013-01-29 19:11:00,
2013-01-29 14:16:00,33.2,31.7,30.16,North,355,2.0,4.0,94,0.00,,,0.13,Wunderground v.1.15,2013-01-29 19:16:00,
2013-01-29 14:21:00,33.2,31.7,30.16,North,355,0.0,1.0,94,0.00,,,0.13,Wunderground v.1.15,2013-01-29 19:21:00,
2013-01-29 14:26:00,33.3,31.8,30.16,North,355,1.0,2.0,94,0.00,,,0.13,Wunderground v.1.15,2013-01-29 19:26:00,
2013-01-29 14:31:00,33.2,31.7,30.16,North,355,0.0,0.0,94,0.00,,,0.13,Wunderground v.1.15,2013-01-29 19:31:00,
2013-01-29 14:36:00,33.3,31.8,30.16,North,355,0.0,2.0,94,0.00,,,0.13,Wunderground v.1.15,2013-01-29 19:36:00,
2013-01-29 14:41:00,33.3,31.8,30.16,North,355,0.0,2.0,94,0.00,,,0.14,Wunderground v.1.15,2013-01-29 19:41:00,
2013-01-29 14:46:00,33.4,31.9,30.16,North,355,2.0,2.0,94,0.00,,,0.14,Wunderground v.1.15,2013-01-29 19:46:00,
2013-01-29 14:51:00,33.4,31.9,30.17,North,355,0.0,2.0,94,0.00,,,0.14,Wunderground v.1.15,2013-01-29 19:51:00,
2013-01-29 14:56:00,33.5,32.0,30.17,North,355,0.0,2.0,94,0.00,,,0.14,Wunderground v.1.15,2013-01-29 19:56:00,
2013-01-29 14:58:00,33.5,32.0,30.17,North,355,0.0,2.0,94,0.00,,,0.14,Wunderground v.1.15,2013-01-29 19:58:00,
2013-01-29 15:03:00,33.5,32.0,30.17,North,355,0.0,0.0,94,0.00,,,0.14,Wunderground v.1.15,2013-01-29 20:03:00,
2013-01-29 15:08:00,33.6,32.1,30.17,North,355,0.0,1.0,94,0.00,,,0.14,Wunderground v.1.15,2013-01-29 20:08:00,
2013-01-29 15:13:00,33.5,32.0,30.16,North,355,0.0,0.0,94,0.00,,,0.14,Wunderground v.1.15,2013-01-29 20:13:00,
2013-01-29 15:18:00,33.5,32.0,30.16,North,355,0.0,0.0,94,0.00,,,0.14,Wunderground v.1.15,2013-01-29 20:18:00,
2013-01-29 15:23:00,33.5,32.0,30.16,North,355,0.0,0.0,94,0.00,,,0.14,Wunderground v.1.15,2013-01-29 20:23:00,
2013-01-29 15:28:00,33.5,32.0,30.17,North,355,0.0,0.0,94,0.00,,,0.14,Wunderground v.1.15,2013-01-29 20:28:00,
2013-01-29 15:34:00,33.5,32.0,30.16,North,355,0.0,0.0,94,0.00,,,0.14,Wunderground v.1.15,2013-01-29 20:34:00,
2013-01-29 15:39:00,33.5,32.0,30.16,North,355,0.0,0.0,94,0.00,,,0.14,Wunderground v.1.15,2013-01-29 20:39:00,
2013-01-29 15:44:00,33.5,32.0,30.15,North,355,0.0,0.0,94,0.00,,,0.14,Wunderground v.1.15,2013-01-29 20:44:00,
2013-01-29 15:49:00,33.5,32.0,30.15,North,355,0.0,0.0,94,0.00,,,0.14,Wunderground v.1.15,2013-01-29 20:49:00,
2013-01-29 15:54:00,33.5,32.0,30.15,North,355,0.0,0.0,94,0.00,,,0.14,Wunderground v.1.15,2013-01-29 20:54:00,
2013-01-29 15:59:00,33.5,32.0,30.15,North,355,0.0,0.0,94,0.00,,,0.14,Wunderground v.1.15,2013-01-29 20:59:00,
2013-01-29 16:04:00,33.5,31.7,30.16,North,355,2.0,2.0,93,0.00,,,0.14,Wunderground v.1.15,2013-01-29 21:04:00,
2013-01-29 16:09:00,33.3,31.5,30.16,North,355,0.0,2.0,93,0.00,,,0.15,Wunderground v.1.15,2013-01-29 21:09:00,
2013-01-29 16:14:00,33.2,31.7,30.16,North,355,0.0,1.0,94,0.00,,,0.15,Wunderground v.1.15,2013-01-29 21:14:00,
2013-01-29 16:19:00,33.0,31.5,30.16,North,355,0.0,2.0,94,0.00,,,0.15,Wunderground v.1.15,2013-01-29 21:19:00,
2013-01-29 16:24:00,33.0,31.5,30.16,North,355,0.0,1.0,94,0.00,,,0.15,Wunderground v.1.15,2013-01-29 21:24:00,
2013-01-29 16:29:00,33.0,31.5,30.16,North,355,1.0,2.0,94,0.00,,,0.15,Wunderground v.1.15,2013-01-29 21:29:00,
2013-01-29 16:34:00,33.1,31.8,30.16,North,355,0.0,1.0,95,0.00,,,0.15,Wunderground v.1.15,2013-01-29 21:34:00,
2013-01-29 16:39:00,33.1,31.8,30.17,North,355,0.0,1.0,95,0.00,,,0.15,Wunderground v.1.15,2013-01-29 21:39:00,
2013-01-29 16:44:00,33.2,31.9,30.17,North,355,0.0,0.0,95,0.00,,,0.15,Wunderground v.1.15,2013-01-29 21:44:00,
2013-01-29 16:49:00,33.2,31.9,30.17,North,355,0.0,0.0,95,0.00,,,0.15,Wunderground v.1.15,2013-01-29 21:49:00,
2013-01-29 16:54:00,33.1,31.8,30.17,North,355,0.0,0.0,95,0.00,,,0.15,Wunderground v.1.15,2013-01-29 21:54:00,
2013-01-29 16:59:00,33.1,31.8,30.16,North,355,0.0,0.0,95,0.00,,,0.15,Wunderground v.1.15,2013-01-29 21:59:00,
2013-01-29 17:04:00,33.0,31.7,30.16,North,355,0.0,0.0,95,0.00,,,0.15,Wunderground v.1.15,2013-01-29 22:04:00,
2013-01-29 17:09:00,33.0,31.7,30.16,North,355,0.0,0.0,95,0.00,,,0.15,Wunderground v.1.15,2013-01-29 22:09:00,
2013-01-29 17:14:00,32.9,31.6,30.16,North,355,0.0,0.0,95,0.00,,,0.15,Wunderground v.1.15,2013-01-29 22:14:00,
2013-01-29 17:19:00,32.9,31.6,30.16,North,355,0.0,0.0,95,0.00,,,0.15,Wunderground v.1.15,2013-01-29 22:19:00,
2013-01-29 17:25:00,32.9,31.6,30.17,North,355,0.0,0.0,95,0.00,,,0.15,Wunderground v.1.15,2013-01-29 22:25:00,
2013-01-29 17:30:00,32.8,31.5,30.17,North,355,0.0,0.0,95,0.00,,,0.15,Wunderground v.1.15,2013-01-29 22:30:00,
2013-01-29 17:35:00,32.8,31.5,30.17,North,355,0.0,0.0,95,0.00,,,0.15,Wunderground v.1.15,2013-01-29 22:35:00,
2013-01-29 17:40:00,32.8,31.5,30.18,North,355,0.0,0.0,95,0.00,,,0.15,Wunderground v.1.15,2013-01-29 22:40:00,
2013-01-29 17:45:00,32.8,31.5,30.17,North,355,0.0,0.0,95,0.00,,,0.15,Wunderground v.1.15,2013-01-29 22:45:00,
2013-01-29 17:50:00,32.8,31.8,30.17,North,355,0.0,0.0,96,0.00,,,0.15,Wunderground v.1.15,2013-01-29 22:50:00,
2013-01-29 17:55:00,32.8,31.8,30.17,North,355,0.0,0.0,96,0.00,,,0.15,Wunderground v.1.15,2013-01-29 22:55:00,
2013-01-29 18:00:00,32.8,31.8,30.17,North,355,0.0,0.0,96,0.00,,,0.15,Wunderground v.1.15,2013-01-29 23:00:00,
2013-01-29 18:05:00,32.7,31.7,30.17,North,355,0.0,0.0,96,0.00,,,0.15,Wunderground v.1.15,2013-01-29 23:05:00,
2013-01-29 18:10:00,32.7,31.7,30.18,North,355,0.0,0.0,96,0.00,,,0.15,Wunderground v.1.15,2013-01-29 23:10:00,
2013-01-29 18:15:00,32.6,31.6,30.18,North,355,0.0,0.0,96,0.00,,,0.15,Wunderground v.1.15,2013-01-29 23:15:00,
2013-01-29 18:20:00,32.6,31.6,30.18,North,355,0.0,0.0,96,0.00,,,0.15,Wunderground v.1.15,2013-01-29 23:20:00,
2013-01-29 18:25:00,32.6,31.6,30.18,North,355,0.0,0.0,96,0.00,,,0.15,Wunderground v.1.15,2013-01-29 23:25:00,
2013-01-29 18:30:00,32.6,31.6,30.18,North,355,0.0,0.0,96,0.00,,,0.15,Wunderground v.1.15,2013-01-29 23:30:00,
2013-01-29 18:35:00,32.6,31.6,30.18,North,355,0.0,0.0,96,0.00,,,0.15,Wunderground v.1.15,2013-01-29 23:35:00,
2013-01-29 18:41:00,32.6,31.6,30.17,North,355,0.0,0.0,96,0.00,,,0.15,Wunderground v.1.15,2013-01-29 23:41:00,
2013-01-29 18:46:00,32.6,31.6,30.16,North,355,0.0,0.0,96,0.00,,,0.15,Wunderground v.1.15,2013-01-29 23:46:00,
2013-01-29 18:51:00,32.6,31.6,30.17,North,355,0.0,0.0,96,0.00,,,0.15,Wunderground v.1.15,2013-01-29 23:51:00,
2013-01-29 18:56:00,32.6,31.6,30.17,North,355,0.0,0.0,96,0.00,,,0.15,Wunderground v.1.15,2013-01-29 23:56:00,
2013-01-29 19:01:00,32.6,31.6,30.18,North,355,0.0,1.0,96,0.00,,,0.15,Wunderground v.1.15,2013-01-30 00:01:00,
2013-01-29 19:06:00,32.6,31.6,30.18,North,355,1.0,3.0,96,0.00,,,0.15,Wunderground v.1.15,2013-01-30 00:06:00,
2013-01-29 19:11:00,32.6,31.6,30.19,North,355,0.0,1.0,96,0.00,,,0.15,Wunderground v.1.15,2013-01-30 00:11:00,
2013-01-29 19:16:00,32.6,31.6,30.18,North,355,0.0,1.0,96,0.00,,,0.15,Wunderground v.1.15,2013-01-30 00:16:00,
2013-01-29 19:21:00,32.6,31.6,30.18,North,355,0.0,0.0,96,0.00,,,0.15,Wunderground v.1.15,2013-01-30 00:21:00,
2013-01-29 19:26:00,32.5,31.5,30.18,North,355,0.0,0.0,96,0.00,,,0.15,Wunderground v.1.15,2013-01-30 00:26:00,
2013-01-29 19:31:00,32.5,31.5,30.18,North,355,0.0,0.0,96,0.00,,,0.15,Wunderground v.1.15,2013-01-30 00:31:00,
2013-01-29 19:36:00,32.5,31.5,30.18,North,355,1.0,1.0,96,0.00,,,0.15,Wunderground v.1.15,2013-01-30 00:36:00,
2013-01-29 19:41:00,32.4,31.4,30.18,North,355,0.0,0.0,96,0.00,,,0.15,Wunderground v.1.15,2013-01-30 00:41:00,
2013-01-29 19:46:00,32.3,31.3,30.18,North,355,0.0,0.0,96,0.00,,,0.15,Wunderground v.1.15,2013-01-30 00:46:00,
2013-01-29 19:51:00,32.2,31.2,30.17,North,355,0.0,0.0,96,0.00,,,0.15,Wunderground v.1.15,2013-01-30 00:51:00,
2013-01-29 19:56:00,32.2,31.2,30.17,North,355,0.0,0.0,96,0.00,,,0.15,Wunderground v.1.15,2013-01-30 00:56:00,
2013-01-29 20:01:00,32.2,31.2,30.18,North,355,0.0,0.0,96,0.00,,,0.15,Wunderground v.1.15,2013-01-30 01:01:00,
2013-01-29 20:06:00,32.3,31.3,30.17,North,355,0.0,0.0,96,0.00,,,0.15,Wunderground v.1.15,2013-01-30 01:06:00,
2013-01-29 20:11:00,32.3,31.3,30.17,North,355,0.0,0.0,96,0.00,,,0.15,Wunderground v.1.15,2013-01-30 01:11:00,
2013-01-29 20:16:00,32.2,31.2,30.18,North,355,0.0,0.0,96,0.00,,,0.15,Wunderground v.1.15,2013-01-30 01:16:00,
2013-01-29 20:21:00,32.2,31.2,30.18,North,355,0.0,0.0,96,0.00,,,0.15,Wunderground v.1.15,2013-01-30 01:21:00,
2013-01-29 20:26:00,32.3,31.3,30.19,North,355,0.0,0.0,96,0.00,,,0.15,Wunderground v.1.15,2013-01-30 01:26:00,
2013-01-29 20:31:00,32.3,31.3,30.18,North,355,0.0,0.0,96,0.00,,,0.15,Wunderground v.1.15,2013-01-30 01:31:00,
2013-01-29 20:36:00,32.3,31.3,30.18,North,355,0.0,0.0,96,0.00,,,0.15,Wunderground v.1.15,2013-01-30 01:36:00,
2013-01-29 20:41:00,32.3,31.3,30.17,North,355,0.0,0.0,96,0.00,,,0.15,Wunderground v.1.15,2013-01-30 01:41:00,
2013-01-29 20:46:00,32.3,31.3,30.17,North,355,0.0,0.0,96,0.00,,,0.15,Wunderground v.1.15,2013-01-30 01:46:00,
2013-01-29 20:51:00,32.3,31.3,30.17,North,355,0.0,0.0,96,0.00,,,0.15,Wunderground v.1.15,2013-01-30 01:51:00,
2013-01-29 20:56:00,32.3,31.3,30.17,North,355,0.0,0.0,96,0.00,,,0.15,Wunderground v.1.15,2013-01-30 01:56:00,
2013-01-29 21:01:00,32.3,31.3,30.17,North,355,0.0,0.0,96,0.00,,,0.15,Wunderground v.1.15,2013-01-30 02:01:00,
2013-01-29 21:07:00,32.3,31.3,30.17,North,355,0.0,0.0,96,0.00,,,0.15,Wunderground v.1.15,2013-01-30 02:07:00,
2013-01-29 21:12:00,32.3,31.3,30.18,North,355,0.0,0.0,96,0.00,,,0.15,Wunderground v.1.15,2013-01-30 02:12:00,
2013-01-29 21:17:00,32.3,31.3,30.18,North,355,0.0,0.0,96,0.00,,,0.15,Wunderground v.1.15,2013-01-30 02:17:00,
2013-01-29 21:22:00,32.3,31.5,30.19,North,355,0.0,0.0,97,0.00,,,0.15,Wunderground v.1.15,2013-01-30 02:22:00,
2013-01-29 21:27:00,32.3,31.5,30.19,North,355,0.0,0.0,97,0.00,,,0.15,Wunderground v.1.15,2013-01-30 02:27:00,
2013-01-29 21:32:00,32.3,31.5,30.18,North,355,0.0,1.0,97,0.00,,,0.15,Wunderground v.1.15,2013-01-30 02:32:00,
2013-01-29 21:37:00,32.2,31.4,30.18,North,355,0.0,2.0,97,0.00,,,0.15,Wunderground v.1.15,2013-01-30 02:37:00,
2013-01-29 21:42:00,32.1,31.3,30.17,North,355,0.0,1.0,97,0.00,,,0.15,Wunderground v.1.15,2013-01-30 02:42:00,
2013-01-29 21:47:00,32.0,31.2,30.17,North,355,2.0,2.0,97,0.00,,,0.15,Wunderground v.1.15,2013-01-30 02:47:00,
2013-01-29 21:52:00,32.0,31.2,30.17,North,355,0.0,1.0,97,0.00,,,0.15,Wunderground v.1.15,2013-01-30 02:52:00,
2013-01-29 21:57:00,32.0,31.2,30.16,North,355,0.0,1.0,97,0.00,,,0.15,Wunderground v.1.15,2013-01-30 02:57:00,
2013-01-29 22:02:00,32.0,31.2,30.16,North,355,0.0,0.0,97,0.00,,,0.15,Wunderground v.1.15,2013-01-30 03:02:00,
2013-01-29 22:07:00,32.0,31.2,30.16,North,355,0.0,0.0,97,0.00,,,0.16,Wunderground v.1.15,2013-01-30 03:07:00,
2013-01-29 22:12:00,32.0,31.2,30.15,North,355,0.0,0.0,97,0.00,,,0.16,Wunderground v.1.15,2013-01-30 03:12:00,
2013-01-29 22:17:00,32.0,31.2,30.15,North,355,0.0,0.0,97,0.00,,,0.16,Wunderground v.1.15,2013-01-30 03:17:00,
2013-01-29 22:22:00,32.0,31.2,30.15,North,355,0.0,0.0,97,0.00,,,0.16,Wunderground v.1.15,2013-01-30 03:22:00,
2013-01-29 22:27:00,32.1,31.3,30.15,North,355,0.0,0.0,97,0.00,,,0.16,Wunderground v.1.15,2013-01-30 03:27:00,
2013-01-29 22:32:00,32.1,31.3,30.15,North,355,0.0,0.0,97,0.00,,,0.16,Wunderground v.1.15,2013-01-30 03:32:00,
2013-01-29 22:37:00,32.1,31.3,30.15,North,355,0.0,0.0,97,0.00,,,0.16,Wunderground v.1.15,2013-01-30 03:37:00,
2013-01-29 22:42:00,32.1,31.3,30.15,North,355,0.0,0.0,97,0.00,,,0.16,Wunderground v.1.15,2013-01-30 03:42:00,
2013-01-29 22:47:00,32.2,31.4,30.15,North,355,0.0,0.0,97,0.00,,,0.16,Wunderground v.1.15,2013-01-30 03:47:00,
2013-01-29 22:52:00,32.1,31.3,30.15,North,355,0.0,0.0,97,0.00,,,0.16,Wunderground v.1.15,2013-01-30 03:52:00,
2013-01-29 22:57:00,32.1,31.3,30.15,North,355,0.0,0.0,97,0.00,,,0.16,Wunderground v.1.15,2013-01-30 03:57:00,
2013-01-29 23:02:00,32.1,31.3,30.15,North,355,0.0,0.0,97,0.00,,,0.17,Wunderground v.1.15,2013-01-30 04:02:00,
2013-01-29 23:07:00,32.2,31.4,30.14,North,355,0.0,0.0,97,0.00,,,0.17,Wunderground v.1.15,2013-01-30 04:07:00,
2013-01-29 23:13:00,32.2,31.4,30.14,North,355,0.0,0.0,97,0.00,,,0.17,Wunderground v.1.15,2013-01-30 04:13:00,
2013-01-29 23:18:00,32.2,31.4,30.14,North,355,0.0,0.0,97,0.00,,,0.17,Wunderground v.1.15,2013-01-30 04:18:00,
2013-01-29 23:23:00,32.3,31.5,30.13,North,355,0.0,0.0,97,0.00,,,0.17,Wunderground v.1.15,2013-01-30 04:23:00,
2013-01-29 23:28:00,32.3,31.5,30.14,North,355,0.0,0.0,97,0.00,,,0.17,Wunderground v.1.15,2013-01-30 04:28:00,
2013-01-29 23:33:00,32.4,31.6,30.14,North,355,0.0,0.0,97,0.00,,,0.17,Wunderground v.1.15,2013-01-30 04:33:00,
2013-01-29 23:38:00,32.5,31.7,30.14,North,355,0.0,0.0,97,0.00,,,0.17,Wunderground v.1.15,2013-01-30 04:38:00,
2013-01-29 23:43:00,32.6,31.8,30.15,North,355,0.0,0.0,97,0.00,,,0.18,Wunderground v.1.15,2013-01-30 04:43:00,
2013-01-29 23:48:00,32.6,31.8,30.15,North,355,0.0,0.0,97,0.13,,,0.19,Wunderground v.1.15,2013-01-30 04:48:00,
2013-01-29 23:53:00,32.7,31.9,30.15,North,355,0.0,0.0,97,0.11,,,0.19,Wunderground v.1.15,2013-01-30 04:53:00,
2013-01-29 23:58:00,32.7,31.9,30.15,North,355,0.0,0.0,97,0.06,,,0.19,Wunderground v.1.15,2013-01-30 04:58:00,